Back to catalog

STARLINK-2555

AliveCommunicationsVLEO
NORAD 48291·PAYLOAD·🇺🇸 United States

Launched Apr 29, 2021 from Cape Canaveral Space Force Station

Loading…

Next Passes (next 24 hours)

TLE

FreshSource: CelesTrak SupGP

Epoch: Sep 14, 2026, 13:04 UTC

1 48291C 21036R   26257.54493056  .00043407  00000+0  13958-2 0  2576
2 48291  53.1579 278.9334 0001307  76.0802  89.8313 15.31680595    12

Track STARLINK-2555 in real time with AllMySat

Download on the App Store